Погода в Растилкове Малом

Россия / Ивановская область     56°37′07″N   40°59′21″E
темп.,
°C
ветер,
м/с
пор.,
м/с
влажн.,
%
обл.,
%
осадки,
мм/ч
давл.,
гПа
погр.,
м
5 марта, пт
пт500:00−10сз23927 0.0 100121
03:00−11сз229324 0.0 100322
06:00−12зсз23954 0.0 100428
09:00−9з35942 0.0 1005183
12:00−5з469079 0.0 1005549
15:00−3з588290 0.4 1007917
18:00−7зсз389289 0.3 1009199
21:00−12сз358870 0.3 101288
6 марта, сб
сб600:00−15зсз22890 0.0 101420
03:00−15зюз23860 0.0 101524
06:00−15зюз339517 0.0 101543
09:00−11зсз359455 0.1 1015265
12:00−7сз347998 0.0 1016752
15:00−7зсз457898 0.1 1015986
18:00−12з238957 0.0 101421
21:00−14юз239129 0.0 101421
7 марта, вс
вс700:00−15ююз34920 0.0 101270
03:00−14ююз48960 0.0 1009163
06:00−11ююз5129085 0.0 1005361
09:00−8ююз7158993 0.2 1001673
12:00−6ююз81492100 0.4 9961013
15:00−4ююз71393100 1.6 9921037
18:00−4з71290100 1.9 991893
21:00−7з61479100 2.8 993877
8 марта, пн
пн800:00−10зюз5119293 0.0 993345
03:00−7юз4129395 0.5 993599
06:00−7юз41095100 0.8 992612
09:00−6зсз3595100 2.4 993401
12:00−7сз578598 0.3 994600
15:00−8зсз588799 0.3 996781
18:00−7зсз4995100 0.2 998407
21:00−9сз41093100 0.4 1002540
9 марта, вт
вт900:00−12сз4994100 0.1 1005301
03:00−16зсз359695 0.1 1007126
06:00−16сз369687 0.0 1010146
09:00−14сз469190 0.1 1012549
12:00−12сз3587100 0.1 1013700
15:00−12сз4587100 0.2 1014689
18:00−15сз3494100 0.1 101584
21:00−20сз339885 0.1 101734